Flag for Canada Weather past 2 weeks in Prince Albert, Saskatchewan, Canada

Now
43 °F

Mostly cloudy.


Feels Like: 37 °F
Forecast: N/A
Wind: 9 mph from Northwest

Location: Prince Albert

Current Time: Apr 1, 2015 at 5:23:07 PM

Latest Report: Apr 1, 2015 at 4:00 PM


Visibility: 15 mi

Pressure: 29.45 "Hg

Humidity: 66%

Dew point: 32 °F

Location of Prince AlbertLocation

Historic Weather in Prince Albert — Graph

°F

Prince Albert temperature yesterday

Maximum temperature yesterday: 52 °F (at 4:00 PM)
Minimum temperature yesterday: 28 °F (at 1:00 AM)
Average temperature yesterday: 39 °F

Past Weeks' High & Low Weather Summary

 TemperatureHumidityPressure
High54 °F (Mar 29, 3:00 PM)100% (Mar 18, 1:00 AM)30.39 "Hg (Mar 18, 1:00 AM)
Low9 °F (Mar 21, 3:00 AM)33% (Mar 20, 5:00 PM)29.35 "Hg (Apr 1, 4:00 AM)
Average30 °F77%30.02 "Hg
* Reported Mar 17 4:00 PM — Apr 1 4:00 PM, Prince Albert, Weather by CustomWeather, © 2015

Note: Actual official high and low records may vary slightly from our data, if they occured in-between our weather recording intervals... More about our weather records

Advertising

Prince Albert weather history for previous 24 hours

 ConditionsComfort  
Time TempWeatherWind HumidityBarometerVisibility
4:00 PM
Wed, Apr 1
43 °FMostly cloudy.9 mph66%29.45 "Hg15 mi
3:00 PM41 °FOvercast.14 mph70%29.45 "Hg15 mi
2:00 PM41 °FLow clouds.12 mph76%29.45 "Hg15 mi
1:00 PM39 °FLight rain. Low clouds.5 mph93%29.46 "Hg7 mi
12:00 PM37 °FFog.5 mph100%29.46 "Hg5 mi
11:47 AM37 °FDrizzle. Fog.6 mph100%29.45 "Hg5 mi
11:00 AM37 °FDrizzle. Fog.9 mph93%29.44 "Hg2 mi
10:00 AM36 °FDrizzle. Fog.6 mph100%29.44 "Hg1 mi
9:00 AM36 °FLow clouds.3 mph87%29.42 "Hg8 mi
8:45 AM36 °FOvercast.5 mph87%29.43 "Hg15 mi
8:00 AM34 °FOvercast.8 mph93%29.42 "Hg15 mi
7:00 AM32 °FOvercast.12 mph93%29.40 "Hg15 mi
6:00 AM34 °FLow clouds.9 mph93%29.38 "Hg15 mi
5:00 AM32 °FMostly cloudy.No wind93%29.35 "Hg15 mi
4:54 AM32 °FMostly cloudy.No wind93%29.35 "Hg15 mi
4:00 AM32 °FPassing clouds.6 mph93%29.35 "Hg15 mi
3:00 AM34 °FPassing clouds.7 mph93%29.36 "Hg15 mi
2:00 AM36 °FPassing clouds.12 mph87%29.37 "Hg15 mi
1:00 AM37 °FPassing clouds.14 mph81%29.40 "Hg15 mi
12:00 AM37 °FClear.14 mph81%29.41 "Hg15 mi
11:00 PM
Tue, Mar 31
39 °FPassing clouds.12 mph75%29.46 "Hg15 mi
10:00 PM41 °FPassing clouds.14 mph76%29.49 "Hg15 mi
9:00 PM41 °FClear.14 mph76%29.53 "Hg15 mi
8:00 PM43 °FClear.12 mph71%29.55 "Hg15 mi
7:00 PM46 °FPassing clouds.12 mph66%29.57 "Hg15 mi
6:00 PM48 °FPassing clouds.16 mph62%29.59 "Hg15 mi
5:00 PM52 °FPartly sunny.17 mph54%29.62 "Hg15 mi
Weather by CustomWeather, © 2015

See weather overviewHow to use our weather pages